Overview Statistics Trail Chart Weather Telemetry Raw packets
 

This is the latest recevied weather packets stored in our database for station/object DF7ER-12. If no packets are shown the sender has not sent any weather packets the latest 10 day(s).

<< 95 96 97 98 99 100 101 >>
Time Temp. Humidity Pressure Rain* Wind** Luminosity Snow
1787954804 22.22° C 90% 999.1 hPa - - - -
1787954504 22.78° C 89% 999 hPa - - - -
1787954204 22.78° C 89% 998.9 hPa - - - -
1787953904 22.78° C 88% 998.7 hPa - - - -
1787953604 22.78° C 88% 998.8 hPa - - - -
1787953304 22.78° C 90% 998.8 hPa - - - -
1787953004 22.78° C 88% 998.8 hPa - - - -
1787952704 22.78° C 88% 998.8 hPa - - - -
1787952404 23.33° C 86% 998.9 hPa - - - -
1787952107 23.33° C 85% 999 hPa - - - -
1787951804 23.33° C 89% 998.7 hPa - - - -
1787951504 22.78° C 88% 998.8 hPa - - - -
1787951204 23.33° C 88% 999 hPa - - - -
1787950904 22.78° C 91% 999 hPa - - - -
1787950604 23.33° C 90% 998.9 hPa - - - -
1787950304 23.33° C 90% 998.9 hPa - - - -
1787950004 22.78° C 90% 998.7 hPa - - - -
1787949704 23.33° C 89% 998.7 hPa - - - -
1787949404 23.33° C 89% 998.6 hPa - - - -
1787949104 23.89° C 88% 998.7 hPa - - - -
1787948804 23.33° C 90% 998.4 hPa - - - -
1787948504 23.89° C 88% 998.3 hPa - - - -
1787948204 23.89° C 89% 998.3 hPa - - - -
1787947904 23.89° C 89% 998.4 hPa - - - -
1787947604 23.89° C 89% 998.5 hPa - - - -

* Rain since midnight (hover to see other rain measurements)
** Current wind speed in m/s (hover to see current wind gust speed)